Regional Weather Roundup
Issued by NWS

Home | Current Version | Previous Version | Text Only | Print | Product List | Glossary Off
Versions: 1 2 3 4 5 6 7 8 9 10 11 12 13 14 15 16 17 18 19 20 21 22 23 24 25 26 27 28 29 30 31 32 33 34 35 36 37 38 39 40 41 42 43 44 45 46 47 48 49 50

000
ASUS45 KBOU 191507
RWRCO

WEATHER ROUNDUP FOR COLORADO
NATIONAL WEATHER SERVICE DENVER/BOULDER CO
800 AM MST FRI DEC 19 2014

NOTE: "FAIR" INDICATES FEW OR NO CLOUDS BELOW 12000 FEET WITH NO
SIGNIFICANT WEATHER AND/OR OBSTRUCTIONS TO VISIBILITY.

COZ001>005-013-030-031-191600-
...NORTHWEST COLORADO...

CITY           SKY/WX    TMP DP  RH WIND       PRES   REMARKS
CRAIG          LGT SNOW  24  19  81 SW3       30.23S VSB 1
HAYDEN         CLOUDY    16  12  86 CALM      30.20S
MEEKER         LGT SNOW  21  19  92 CALM      30.22S FOG
MOUNT WERNER   NOT AVBL
STEAMBOAT SPGS CLOUDY    19  17  93 SE5       30.19S WCI  12
WALDEN         PTCLDY    14  12  92 S3        30.11S
$$

COZ006>008-011-191600-
...WEST CENTRAL VALLEYS...

CITY           SKY/WX    TMP DP  RH WIND       PRES   REMARKS
GRAND JUNCTION LGT SNOW  30  28  92 CALM      30.25R FOG
MONTROSE       CLOUDY    29  25  85 NW6       30.26R WCI  23
EAGLE          FLURRIES  21  19  93 SW5       30.25R WCI  15
RIFLE          FLURRIES  29  23  78 S3        30.24S
DELTA          CLOUDY    31  26  83 N3        30.26S
NUCLA          NOT AVBL
$$

COZ017>023-064>068-191600-
...SOUTHWEST COLORADO...

CITY           SKY/WX    TMP DP  RH WIND       PRES   REMARKS
DURANGO        CLOUDY    20  16  84 N5        30.21R WCI  13
CORTEZ         CLEAR     19  15  84 NE7       30.24S WCI  10
PAGOSA SPRINGS CLOUDY    19  18  97 CALM      30.19S
TELLURIDE      NOT AVBL
WOLF CREEK PAS   N/A      7   5  92 MISG      30.11R
$$

COZ009-010-012-014-032>034-037-058>063-191600-
...CENTRAL COLORADO...

CITY           SKY/WX    TMP DP  RH WIND       PRES   REMARKS
ASPEN          PTCLDY    19  13  77 S7        30.17S WCI  10
BUENA VISTA    MOCLDY    20  10  64 NW9       30.14R WCI   9
COPPER MTN     CLOUDY    12   5  73 W18       30.08S WCI  -5
BERTHOUD PASS  CLOUDY     3  -2  78 MISG      30.03F
COTTONWOOD PAS MOCLDY    21   7  53 W17G26    30.10R WCI   7
GUNNISON       CLOUDY    16   9  73 N5        30.23S WCI   9
KREMMLING      FLURRIES N/A N/A N/A CALM      30.21S
LEADVILLE      CLOUDY     8   3  80 NE6       30.11S WCI  -2
MONARCH PASS   MOCLDY     9   3  78 MISG      30.18R
SALIDA         MOCLDY    21  12  67 N8        30.22S WCI  11
SUNLIGHT       LGT SNOW N/A N/A N/A CALM      30.15S
WILKERSON PASS MOCLDY    10   3  72 NW10G21   30.07R WCI  -3
$$

COZ069>075-191600-
...SAN LUIS VALLEY/SANGRE DE CRISTO MOUNTAINS...

CITY           SKY/WX    TMP DP  RH WIND       PRES   REMARKS
ALAMOSA        FOG        5   2  87 SW3       30.18R VSB 1/4
LA VETA PASS   MOCLDY    16  12  86 SW6G17    30.07R WCI   7
SAGUACHE       PTCLDY    21  14  73 NW10      30.17R WCI  10
$$

COZ035-036-038>040-191600-
...NORTHERN COLORADO FRONT RANGE...

CITY           SKY/WX    TMP DP  RH WIND       PRES   REMARKS
DENVER INTL AP PTCLDY    25  19  78 SW9       30.09S WCI  15
DMNS CITY PARK   N/A     25  19  77 SW5       30.11R WCI  19
AURORA         PTCLDY    23  20  89 S10       30.10F WCI  12
FRONT RANGE AP NOT AVBL
ERIE MUNI ARPT   N/A     18  16  93 S3        30.10S FOG
BOULDER MUN AP CLEAR     28  19  69 CALM      30.09S
CENTENNIAL     PTCLDY    21  16  81 SE3       30.09S
BROOMFIELD     PTCLDY    27  25  93 CALM      30.10R
FORT COLLINS   CLEAR     19  18  93 S7        30.10S WCI  10
LONGMONT       CLEAR     22  19  88 CALM      30.11S FOG
$$

COZ041-046-047-076>085-087-088-191600-
...PIKES PEAK/PALMER DIVIDE AND SOUTHERN FOOTHILLS...

CITY           SKY/WX    TMP DP  RH WIND       PRES   REMARKS
COLO. SPRINGS  PTCLDY    24  17  74 N5        30.09F WCI  18
A. F. ACADEMY  PTCLDY    18  12  79 N8        30.09S WCI   7
ELLICOTT       NOT AVBL
FALCON         CLEAR     25  17  73 NW6       30.08F WCI  18
FORT CARSON    PTCLDY    23  19  83 NW7       30.08F WCI  14
LIMON          CLEAR     17  14  88 N5        30.11R WCI  10
MONUMENT HILL  CLEAR     21  14  73 W6        30.07S WCI  14
TRINIDAD       CLEAR     25  19  78 W12       30.11R WCI  14
$$

COZ042>045-048>051-090-091-191600-
...NORTHEAST COLORADO...

CITY           SKY/WX    TMP DP  RH WIND       PRES   REMARKS
GREELEY ARPT   PTCLDY    12   5  73 N5        30.10R WCI   4
AKRON          CLOUDY    21  18  88 W14       30.09S FOG     WCI   8
BURLINGTON     MOCLDY    28  22  78 W8        30.12R WCI  20
WRAY           CLOUDY    22  19  88 SW7       30.11S WCI  14
STERLING       PTCLDY    12   9  85 S6        30.11S WCI   3
HOLYOKE        NOT AVBL
FORT MORGAN    PTCLDY    15  12  91 W10       30.11S WCI   2
$$

COZ086-089-092>099-191600-
...SOUTHEAST COLORADO...

CITY           SKY/WX    TMP DP  RH WIND       PRES   REMARKS
PUEBLO         CLEAR     21  19  92 SW3       30.11S
LA JUNTA       CLEAR     27  24  89 W12       30.11S WCI  17
LAMAR          CLEAR     23  21  92 CALM      30.12R FOG
SPRINGFIELD      N/A     29  27  92 NW9       30.10R WCI  20
$$


USA.gov is the U.S. government's official web portal to all federal, state and local government web resources and services.